EXS8DG EGNT-LEMI

Flight info

Callsign EXS8DG
Flight time 2h 40m
Altitude 23000
Route GIRLI P18 TELBA/N0451F330 L151 KIDLI UN859 SOPIL DCT BALAN DCT LMG/N0451F350 DCT PIMQO DCT AGN DCT ANETO DCT TURUV DCT GRAUS DCT LOBAR DCT SEROX DCT CASPE DCT MLA DCT CRETA DCT RIMES DCT SAURA DCT TATOS DCT PLANA DCT VLC L34 ALT
Aircraft A321/M-SDE3FGHIRWY/LB1

Departure

Time 2026-04-17 08:28
Airport Newcastle International Airport (EGNT)

Arrival

Time 2026-04-17 11:09
Airport Region of Murcia International Airport (LEMI)
Time Latitude Longitude Altitude Speed Heading
2026-04-17 08:03 55.03725 -1.70593 268 ft 0 kts 242°
2026-04-17 08:06 55.03725 -1.70592 267 ft 0 kts 242°
2026-04-17 08:17 55.03733 -1.70567 267 ft 3 kts 242°
2026-04-17 08:17 55.03744 -1.70531 267 ft 3 kts 242°
2026-04-17 08:17 55.03754 -1.70496 267 ft 3 kts 238°
2026-04-17 08:17 55.03768 -1.70463 267 ft 3 kts 227°
2026-04-17 08:18 55.03785 -1.70435 267 ft 3 kts 216°
2026-04-17 08:18 55.03804 -1.70413 267 ft 3 kts 205°
2026-04-17 08:18 55.03826 -1.70399 267 ft 3 kts 193°
2026-04-17 08:18 55.03848 -1.70392 267 ft 3 kts 185°
2026-04-17 08:19 55.03871 -1.70389 267 ft 3 kts 184°
2026-04-17 08:19 55.03878 -1.70388 267 ft 0 kts 184°
2026-04-17 08:21 55.03858 -1.70391 267 ft 5 kts 184°
2026-04-17 08:21 55.03823 -1.70393 267 ft 5 kts 178°
2026-04-17 08:22 55.03794 -1.70369 267 ft 6 kts 135°
2026-04-17 08:22 55.03778 -1.70252 264 ft 14 kts 94°
2026-04-17 08:22 55.03772 -1.70079 262 ft 15 kts 90°
2026-04-17 08:22 55.03779 -1.69894 260 ft 16 kts 83°
2026-04-17 08:23 55.03799 -1.69707 258 ft 16 kts 77°
2026-04-17 08:23 55.03832 -1.69521 256 ft 16 kts 69°
2026-04-17 08:23 55.03878 -1.69342 254 ft 16 kts 65°
2026-04-17 08:23 55.03926 -1.69163 253 ft 16 kts 65°
2026-04-17 08:24 55.03973 -1.68984 251 ft 16 kts 65°
2026-04-17 08:24 55.04020 -1.68807 250 ft 16 kts 65°
2026-04-17 08:24 55.04066 -1.68634 249 ft 16 kts 65°
2026-04-17 08:24 55.04111 -1.68465 248 ft 15 kts 65°
2026-04-17 08:25 55.04154 -1.68304 248 ft 14 kts 65°
2026-04-17 08:25 55.04194 -1.68153 247 ft 13 kts 65°
2026-04-17 08:25 55.04232 -1.68011 247 ft 12 kts 65°
2026-04-17 08:25 55.04267 -1.67878 247 ft 12 kts 65°
2026-04-17 08:26 55.04301 -1.67748 245 ft 12 kts 65°
2026-04-17 08:26 55.04332 -1.67610 243 ft 12 kts 83°
2026-04-17 08:26 55.04328 -1.67459 241 ft 12 kts 99°
2026-04-17 08:26 55.04273 -1.67368 241 ft 11 kts 165°
2026-04-17 08:27 55.04230 -1.67365 241 ft 8 kts 202°
2026-04-17 08:27 55.04216 -1.67395 242 ft 0 kts 239°
2026-04-17 08:27 55.04211 -1.67410 242 ft 8 kts 240°
2026-04-17 08:27 55.04134 -1.67694 246 ft 57 kts 245°
2026-04-17 08:28 55.03867 -1.68691 250 ft 124 kts 245°
2026-04-17 08:28 55.03419 -1.70360 273 ft 173 kts 248°
2026-04-17 08:28 55.02958 -1.72219 1111 ft 153 kts 244°
2026-04-17 08:28 55.02549 -1.73875 1911 ft 151 kts 239°
2026-04-17 08:29 55.02018 -1.75433 2336 ft 152 kts 220°
2026-04-17 08:29 55.01083 -1.76507 2493 ft 171 kts 205°
2026-04-17 08:29 54.99910 -1.77302 2638 ft 191 kts 200°
2026-04-17 08:29 54.98562 -1.78075 2807 ft 216 kts 199°
2026-04-17 08:30 54.97082 -1.78909 3266 ft 228 kts 200°
2026-04-17 08:30 54.95550 -1.79731 3952 ft 232 kts 199°
2026-04-17 08:30 54.93997 -1.80557 4689 ft 234 kts 199°
2026-04-17 08:30 54.92426 -1.81394 5362 ft 238 kts 199°
2026-04-17 08:31 54.90821 -1.82236 6042 ft 243 kts 199°
2026-04-17 08:31 54.89186 -1.83078 6667 ft 247 kts 199°
2026-04-17 08:31 54.87525 -1.83929 7301 ft 251 kts 199°
2026-04-17 08:31 54.85841 -1.84795 7960 ft 254 kts 199°
2026-04-17 08:32 54.84136 -1.85673 8603 ft 257 kts 199°
2026-04-17 08:32 54.82423 -1.86504 9236 ft 261 kts 196°
2026-04-17 08:32 54.80632 -1.87163 9860 ft 265 kts 194°
2026-04-17 08:32 54.78787 -1.87800 10187 ft 280 kts 194°
2026-04-17 08:33 54.76812 -1.88492 10324 ft 300 kts 194°
2026-04-17 08:33 54.74703 -1.89243 10450 ft 319 kts 194°
2026-04-17 08:33 54.72481 -1.90044 10750 ft 330 kts 194°
2026-04-17 08:33 54.70219 -1.90864 11295 ft 334 kts 194°
2026-04-17 08:34 54.67936 -1.91704 11877 ft 336 kts 194°
2026-04-17 08:34 54.65641 -1.92557 12470 ft 339 kts 194°
2026-04-17 08:34 54.63325 -1.93427 13077 ft 342 kts 194°
2026-04-17 08:34 54.60993 -1.94303 13671 ft 344 kts 194°
2026-04-17 08:35 54.58647 -1.95187 14206 ft 347 kts 194°
2026-04-17 08:35 54.56281 -1.96082 14733 ft 349 kts 194°
2026-04-17 08:35 54.53908 -1.96981 15251 ft 351 kts 194°
2026-04-17 08:35 54.51505 -1.97810 15760 ft 354 kts 191°
2026-04-17 08:36 54.49062 -1.98430 16262 ft 356 kts 190°
2026-04-17 08:36 54.46599 -1.99033 16753 ft 358 kts 190°
2026-04-17 08:36 54.44127 -1.99641 17242 ft 360 kts 190°
2026-04-17 08:36 54.41642 -2.00255 17759 ft 362 kts 190°
2026-04-17 08:37 54.39132 -2.00782 18231 ft 365 kts 186°
2026-04-17 08:37 54.36584 -2.01030 18653 ft 368 kts 185°
2026-04-17 08:37 54.34027 -2.01304 19056 ft 369 kts 187°
2026-04-17 08:37 54.31461 -2.01665 19469 ft 371 kts 188°
2026-04-17 08:38 54.28881 -2.02077 19885 ft 373 kts 188°
2026-04-17 08:38 54.26296 -2.02507 20305 ft 375 kts 188°
2026-04-17 08:38 54.23692 -2.02937 20724 ft 377 kts 188°
2026-04-17 08:38 54.21077 -2.03354 21101 ft 378 kts 188°
2026-04-17 08:39 54.18484 -2.03756 21498 ft 380 kts 188°
2026-04-17 08:39 54.15807 -2.04164 21898 ft 382 kts 188°
2026-04-17 08:39 54.13190 -2.04557 22275 ft 384 kts 189°
2026-04-17 08:39 54.10522 -2.04956 22654 ft 386 kts 189°
2026-04-17 08:40 54.07839 -2.05360 23034 ft 388 kts 189°
2026-04-17 08:40 54.05149 -2.05765 23410 ft 389 kts 189°
2026-04-17 08:40 54.02440 -2.06171 23747 ft 391 kts 189°
2026-04-17 08:40 53.99721 -2.06575 24052 ft 393 kts 189°
2026-04-17 08:41 53.96982 -2.06980 24351 ft 395 kts 189°
2026-04-17 08:41 53.94248 -2.07383 24675 ft 396 kts 189°
2026-04-17 08:41 53.91500 -2.07792 24997 ft 397 kts 190°
2026-04-17 08:41 53.88737 -2.08205 25302 ft 399 kts 190°
2026-04-17 08:42 53.85965 -2.08616 25620 ft 401 kts 190°
2026-04-17 08:42 53.83180 -2.09022 25923 ft 402 kts 190°
2026-04-17 08:42 53.80388 -2.09429 26277 ft 403 kts 190°
2026-04-17 08:42 53.77590 -2.09842 26577 ft 404 kts 190°
2026-04-17 08:43 53.74780 -2.10259 26849 ft 405 kts 190°
2026-04-17 08:43 53.71964 -2.10687 27099 ft 407 kts 191°
2026-04-17 08:43 53.69144 -2.11141 27350 ft 408 kts 191°
2026-04-17 08:43 53.66317 -2.11606 27600 ft 409 kts 191°
2026-04-17 08:44 53.63475 -2.12079 27870 ft 411 kts 191°
2026-04-17 08:44 53.60625 -2.12549 28129 ft 412 kts 191°
2026-04-17 08:44 53.57762 -2.13017 28384 ft 414 kts 191°
2026-04-17 08:44 53.54891 -2.13482 28637 ft 415 kts 191°
2026-04-17 08:45 53.52045 -2.13940 28889 ft 417 kts 191°
2026-04-17 08:45 53.49161 -2.14398 29246 ft 416 kts 191°
2026-04-17 08:45 53.46285 -2.14851 29609 ft 415 kts 191°
2026-04-17 08:45 53.43413 -2.15300 29970 ft 414 kts 191°
2026-04-17 08:46 53.40550 -2.15749 30272 ft 413 kts 192°
2026-04-17 08:46 53.37696 -2.16204 30550 ft 412 kts 192°
2026-04-17 08:46 53.34846 -2.16658 30827 ft 411 kts 192°
2026-04-17 08:46 53.32002 -2.17112 31104 ft 410 kts 192°
2026-04-17 08:47 53.29163 -2.17566 31381 ft 410 kts 192°
2026-04-17 08:47 53.26229 -2.18035 31664 ft 409 kts 192°
2026-04-17 08:47 53.23460 -2.18476 31942 ft 408 kts 192°
2026-04-17 08:47 53.20673 -2.18914 32206 ft 407 kts 192°
2026-04-17 08:48 53.17852 -2.19352 32491 ft 407 kts 193°
2026-04-17 08:48 53.15037 -2.19790 32767 ft 406 kts 193°
2026-04-17 08:48 53.12227 -2.20231 33043 ft 405 kts 193°
2026-04-17 08:48 53.09424 -2.20673 33295 ft 405 kts 193°
2026-04-17 08:49 53.06622 -2.21111 33568 ft 404 kts 193°
2026-04-17 08:49 53.03828 -2.21545 33837 ft 403 kts 193°
2026-04-17 08:49 53.01039 -2.21978 34093 ft 402 kts 193°
2026-04-17 08:49 52.98253 -2.22413 34266 ft 402 kts 193°
2026-04-17 08:50 52.95461 -2.22850 34398 ft 403 kts 193°
2026-04-17 08:50 52.92667 -2.23285 34570 ft 404 kts 193°
2026-04-17 08:50 52.89866 -2.23719 34747 ft 404 kts 193°
2026-04-17 08:50 52.87064 -2.24156 34921 ft 404 kts 193°
2026-04-17 08:51 52.84266 -2.24629 35034 ft 405 kts 193°
2026-04-17 08:51 52.78661 -2.25597 35065 ft 405 kts 193°
2026-04-17 08:52 52.73057 -2.26567 35053 ft 405 kts 193°
2026-04-17 08:52 52.67373 -2.26311 35074 ft 427 kts 170°
2026-04-17 08:52 52.64609 -2.24310 35084 ft 439 kts 162°
2026-04-17 08:53 52.61892 -2.22006 35075 ft 440 kts 161°
2026-04-17 08:53 52.56454 -2.17311 35092 ft 441 kts 161°
2026-04-17 08:54 52.51014 -2.12622 35098 ft 441 kts 161°
2026-04-17 08:54 52.45570 -2.07992 35074 ft 441 kts 161°
2026-04-17 08:55 52.40154 -2.03211 35073 ft 448 kts 155°
2026-04-17 08:55 52.34953 -1.97573 35065 ft 449 kts 155°
2026-04-17 08:56 52.29736 -1.91954 35077 ft 449 kts 155°
2026-04-17 08:56 52.24506 -1.86340 35087 ft 451 kts 155°
2026-04-17 08:57 52.19247 -1.80692 35102 ft 453 kts 155°
2026-04-17 08:57 52.13980 -1.75058 35139 ft 453 kts 155°
2026-04-17 08:58 52.08717 -1.69453 35133 ft 452 kts 155°
2026-04-17 08:58 52.03455 -1.63860 35126 ft 452 kts 155°
2026-04-17 08:59 51.98196 -1.58274 35118 ft 452 kts 155°
2026-04-17 08:59 51.92928 -1.52703 35125 ft 452 kts 155°
2026-04-17 09:00 51.87690 -1.47195 35126 ft 452 kts 155°
2026-04-17 09:00 51.82413 -1.41668 35106 ft 452 kts 155°
2026-04-17 09:01 51.77037 -1.36486 35119 ft 445 kts 163°
2026-04-17 09:01 51.71381 -1.32373 35130 ft 446 kts 163°
2026-04-17 09:02 51.65715 -1.28266 35136 ft 446 kts 163°
2026-04-17 09:02 51.60044 -1.24198 35140 ft 446 kts 163°
2026-04-17 09:03 51.54367 -1.20143 35124 ft 447 kts 163°
2026-04-17 09:03 51.48680 -1.16090 35138 ft 447 kts 163°
2026-04-17 09:04 51.42993 -1.12051 35139 ft 447 kts 163°
2026-04-17 09:04 51.37312 -1.08017 35152 ft 447 kts 163°
2026-04-17 09:05 51.31628 -1.03997 35143 ft 447 kts 163°
2026-04-17 09:05 51.25937 -0.99980 35150 ft 447 kts 163°
2026-04-17 09:06 51.20243 -0.95972 35154 ft 447 kts 163°
2026-04-17 09:06 51.14548 -0.91976 35165 ft 448 kts 162°
2026-04-17 09:07 51.08838 -0.87981 35166 ft 448 kts 162°
2026-04-17 09:07 51.03125 -0.83985 35173 ft 449 kts 162°
2026-04-17 09:08 50.97396 -0.79988 35176 ft 449 kts 163°
2026-04-17 09:08 50.91660 -0.76007 35197 ft 450 kts 163°
2026-04-17 09:09 50.85927 -0.72049 35188 ft 450 kts 162°
2026-04-17 09:09 50.80227 -0.68119 35196 ft 450 kts 162°
2026-04-17 09:10 50.71591 -0.62166 35200 ft 449 kts 162°
2026-04-17 09:10 50.65896 -0.58273 35203 ft 449 kts 163°
2026-04-17 09:11 50.60122 -0.54329 35186 ft 449 kts 162°
2026-04-17 09:11 50.54421 -0.50442 35191 ft 450 kts 162°
2026-04-17 09:12 50.48667 -0.46534 35204 ft 450 kts 162°
2026-04-17 09:12 50.42916 -0.42633 35205 ft 450 kts 162°
2026-04-17 09:13 50.37169 -0.38740 35196 ft 450 kts 162°
2026-04-17 09:13 50.32344 -0.35480 35205 ft 450 kts 162°
2026-04-17 09:14 50.26587 -0.31594 35211 ft 451 kts 162°
2026-04-17 09:14 50.20828 -0.27721 35214 ft 451 kts 162°
2026-04-17 09:15 50.15066 -0.23865 35202 ft 451 kts 162°
2026-04-17 09:15 50.09300 -0.20022 35215 ft 451 kts 162°
2026-04-17 09:16 50.03528 -0.16180 35225 ft 451 kts 162°
2026-04-17 09:16 49.97796 -0.12358 35230 ft 451 kts 162°
2026-04-17 09:17 49.91983 -0.08514 35215 ft 451 kts 162°
2026-04-17 09:17 49.86245 -0.04730 35227 ft 451 kts 162°
2026-04-17 09:18 49.80468 -0.00916 35227 ft 451 kts 161°
2026-04-17 09:18 49.74688 0.02897 35225 ft 452 kts 161°
2026-04-17 09:19 49.68895 0.06708 35219 ft 453 kts 161°
2026-04-17 09:19 49.63094 0.10498 35228 ft 453 kts 161°
2026-04-17 09:20 49.57287 0.14283 35235 ft 453 kts 161°
2026-04-17 09:20 49.51477 0.18067 35216 ft 453 kts 161°
2026-04-17 09:21 49.45666 0.21838 35226 ft 453 kts 161°
2026-04-17 09:21 49.39857 0.25594 35234 ft 453 kts 161°
2026-04-17 09:22 49.34046 0.29348 35241 ft 453 kts 161°
2026-04-17 09:22 49.28129 0.32510 35228 ft 448 kts 168°
2026-04-17 09:23 49.22101 0.35047 35231 ft 449 kts 168°
2026-04-17 09:23 49.16082 0.37591 35226 ft 449 kts 168°
2026-04-17 09:24 49.10055 0.40127 35226 ft 449 kts 168°
2026-04-17 09:24 49.04038 0.42657 35215 ft 449 kts 168°
2026-04-17 09:25 48.98013 0.45171 35205 ft 449 kts 168°
2026-04-17 09:25 48.91985 0.47670 35212 ft 449 kts 168°
2026-04-17 09:26 48.85951 0.50169 35218 ft 450 kts 168°
2026-04-17 09:26 48.79917 0.52680 35228 ft 450 kts 168°
2026-04-17 09:27 48.73874 0.55133 35228 ft 449 kts 169°
2026-04-17 09:27 48.67818 0.57469 35233 ft 449 kts 169°
2026-04-17 09:28 48.61760 0.59803 35218 ft 449 kts 169°
2026-04-17 09:28 48.55708 0.62160 35231 ft 449 kts 169°
2026-04-17 09:29 48.49659 0.64532 35233 ft 449 kts 168°
2026-04-17 09:29 48.43621 0.66985 35231 ft 449 kts 168°
2026-04-17 09:30 48.37588 0.69467 35232 ft 449 kts 168°
2026-04-17 09:30 48.31553 0.71924 35231 ft 449 kts 168°
2026-04-17 09:31 48.25517 0.74365 35233 ft 449 kts 168°
2026-04-17 09:31 48.19510 0.76762 35221 ft 449 kts 168°
2026-04-17 09:32 48.13465 0.79130 35219 ft 449 kts 168°
2026-04-17 09:32 48.07418 0.81488 35223 ft 449 kts 168°
2026-04-17 09:33 48.01367 0.83849 35219 ft 449 kts 168°
2026-04-17 09:33 47.95319 0.86214 35206 ft 449 kts 168°
2026-04-17 09:34 47.89263 0.88569 35210 ft 450 kts 168°
2026-04-17 09:34 47.83202 0.90914 35213 ft 450 kts 168°
2026-04-17 09:35 47.77142 0.93262 35207 ft 450 kts 168°
2026-04-17 09:35 47.71076 0.95615 35212 ft 450 kts 168°
2026-04-17 09:36 47.65007 0.97967 35217 ft 451 kts 168°
2026-04-17 09:36 47.58941 1.00301 35222 ft 451 kts 168°
2026-04-17 09:37 47.52868 1.02624 35215 ft 451 kts 168°
2026-04-17 09:37 47.46798 1.04945 35218 ft 451 kts 168°
2026-04-17 09:38 47.40652 1.06379 35216 ft 445 kts 182°
2026-04-17 09:38 47.34465 1.06226 35211 ft 445 kts 184°
2026-04-17 09:39 47.28275 1.06089 35213 ft 445 kts 183°
2026-04-17 09:39 47.22079 1.05955 35217 ft 445 kts 183°
2026-04-17 09:40 47.15886 1.05808 35208 ft 445 kts 184°
2026-04-17 09:40 47.09692 1.05657 35216 ft 445 kts 184°
2026-04-17 09:41 47.03496 1.05505 35218 ft 445 kts 184°
2026-04-17 09:41 46.97309 1.05309 35220 ft 445 kts 184°
2026-04-17 09:42 46.91119 1.05032 35214 ft 444 kts 185°
2026-04-17 09:42 46.84938 1.04740 35218 ft 444 kts 184°
2026-04-17 09:43 46.78795 1.04471 35216 ft 444 kts 184°
2026-04-17 09:43 46.72616 1.04209 35218 ft 444 kts 184°
2026-04-17 09:44 46.66400 1.03949 35215 ft 444 kts 184°
2026-04-17 09:44 46.60265 1.03695 35213 ft 444 kts 184°
2026-04-17 09:45 46.54089 1.03437 35211 ft 444 kts 185°
2026-04-17 09:45 46.47913 1.03228 35212 ft 444 kts 184°
2026-04-17 09:46 46.41735 1.03172 35214 ft 444 kts 183°
2026-04-17 09:46 46.35556 1.03157 35203 ft 443 kts 183°
2026-04-17 09:47 46.29390 1.03103 35213 ft 443 kts 184°
2026-04-17 09:47 46.23225 1.03021 35206 ft 443 kts 184°
2026-04-17 09:48 46.17064 1.02940 35210 ft 443 kts 184°
2026-04-17 09:48 46.10900 1.02872 35200 ft 443 kts 184°
2026-04-17 09:49 46.04739 1.02808 35202 ft 443 kts 184°
2026-04-17 09:49 45.98572 1.02746 35208 ft 443 kts 184°
2026-04-17 09:50 45.92444 1.02678 35199 ft 443 kts 184°
2026-04-17 09:50 45.86266 1.02608 35202 ft 444 kts 184°
2026-04-17 09:51 45.80074 1.02945 35203 ft 449 kts 173°
2026-04-17 09:51 45.73922 1.04555 35198 ft 450 kts 173°
2026-04-17 09:52 45.67758 1.06131 35186 ft 450 kts 174°
2026-04-17 09:52 45.61585 1.07699 35192 ft 451 kts 174°
2026-04-17 09:53 45.55408 1.09272 35182 ft 451 kts 174°
2026-04-17 09:53 45.49219 1.10857 35187 ft 452 kts 174°
2026-04-17 09:54 45.43027 1.12444 35189 ft 452 kts 174°
2026-04-17 09:54 45.36833 1.14020 35180 ft 452 kts 174°
2026-04-17 09:55 45.30640 1.15589 35183 ft 453 kts 174°
2026-04-17 09:55 45.24439 1.17160 35192 ft 453 kts 174°
2026-04-17 09:56 45.19279 1.18452 35195 ft 452 kts 175°
2026-04-17 09:56 45.13082 1.18567 35181 ft 441 kts 193°
2026-04-17 09:57 45.07053 1.17024 35192 ft 441 kts 195°
2026-04-17 09:57 45.01010 1.15469 35194 ft 442 kts 195°
2026-04-17 09:58 44.94953 1.13931 35181 ft 442 kts 195°
2026-04-17 09:58 44.88898 1.12385 35188 ft 442 kts 195°
2026-04-17 09:59 44.82834 1.10838 35194 ft 443 kts 195°
2026-04-17 09:59 44.76765 1.09296 35199 ft 443 kts 195°
2026-04-17 10:00 44.70700 1.07762 35201 ft 443 kts 195°
2026-04-17 10:00 44.64636 1.06225 35203 ft 443 kts 195°
2026-04-17 10:01 44.58570 1.04696 35197 ft 443 kts 195°
2026-04-17 10:01 44.52499 1.03168 35198 ft 443 kts 195°
2026-04-17 10:02 44.46436 1.01630 35200 ft 443 kts 195°
2026-04-17 10:02 44.40371 1.00105 35185 ft 443 kts 195°
2026-04-17 10:03 44.34298 0.98591 35189 ft 443 kts 195°
2026-04-17 10:03 44.28228 0.97068 35195 ft 444 kts 195°
2026-04-17 10:04 44.22150 0.95549 35194 ft 444 kts 195°
2026-04-17 10:04 44.16071 0.94034 35192 ft 444 kts 194°
2026-04-17 10:05 44.09996 0.92526 35202 ft 444 kts 194°
2026-04-17 10:05 44.03919 0.91021 35197 ft 443 kts 194°
2026-04-17 10:06 43.97841 0.89522 35194 ft 444 kts 194°
2026-04-17 10:06 43.91760 0.88022 35194 ft 444 kts 194°
2026-04-17 10:07 43.85677 0.86494 35192 ft 444 kts 195°
2026-04-17 10:07 43.79616 0.84860 35184 ft 443 kts 195°
2026-04-17 10:08 43.73561 0.83203 35194 ft 444 kts 195°
2026-04-17 10:08 43.67495 0.81579 35197 ft 444 kts 195°
2026-04-17 10:09 43.61424 0.79972 35189 ft 444 kts 195°
2026-04-17 10:09 43.55395 0.78369 35194 ft 444 kts 195°
2026-04-17 10:10 43.49324 0.76757 35194 ft 444 kts 195°
2026-04-17 10:11 43.40224 0.74362 35203 ft 444 kts 194°
2026-04-17 10:11 43.34164 0.72771 35209 ft 443 kts 194°
2026-04-17 10:12 43.28105 0.71165 35210 ft 443 kts 194°
2026-04-17 10:12 43.22055 0.69566 35200 ft 443 kts 194°
2026-04-17 10:13 43.16006 0.67976 35204 ft 443 kts 194°
2026-04-17 10:13 43.09957 0.66392 35206 ft 443 kts 194°
2026-04-17 10:14 43.03906 0.64817 35207 ft 443 kts 194°
2026-04-17 10:14 42.97853 0.63247 35199 ft 443 kts 194°
2026-04-17 10:15 42.91803 0.61677 35202 ft 442 kts 194°
2026-04-17 10:15 42.85759 0.60102 35197 ft 442 kts 194°
2026-04-17 10:16 42.79720 0.58535 35199 ft 442 kts 194°
2026-04-17 10:16 42.73662 0.56965 35212 ft 443 kts 194°
2026-04-17 10:17 42.67599 0.55396 35210 ft 443 kts 194°
2026-04-17 10:17 42.61536 0.53832 35210 ft 443 kts 194°
2026-04-17 10:18 42.55470 0.52279 35198 ft 444 kts 194°
2026-04-17 10:18 42.49405 0.50734 35199 ft 443 kts 194°
2026-04-17 10:19 42.43346 0.49175 35202 ft 443 kts 194°
2026-04-17 10:19 42.37284 0.47624 35189 ft 443 kts 194°
2026-04-17 10:20 42.31222 0.46093 35176 ft 443 kts 194°
2026-04-17 10:20 42.25164 0.44551 35184 ft 443 kts 194°
2026-04-17 10:21 42.19104 0.43002 35169 ft 443 kts 194°
2026-04-17 10:21 42.13045 0.41459 35172 ft 443 kts 194°
2026-04-17 10:22 42.06981 0.39932 35177 ft 443 kts 194°
2026-04-17 10:22 42.00918 0.38399 35181 ft 443 kts 194°
2026-04-17 10:23 41.94895 0.36882 35185 ft 443 kts 193°
2026-04-17 10:23 41.88834 0.35363 35193 ft 442 kts 194°
2026-04-17 10:24 41.82785 0.33840 35196 ft 442 kts 194°
2026-04-17 10:24 41.76739 0.32324 35189 ft 442 kts 193°
2026-04-17 10:25 41.70694 0.30819 35187 ft 442 kts 193°
2026-04-17 10:25 41.64642 0.29308 35186 ft 442 kts 193°
2026-04-17 10:26 41.58592 0.27797 35186 ft 442 kts 193°
2026-04-17 10:26 41.52545 0.26288 35178 ft 442 kts 193°
2026-04-17 10:27 41.46493 0.24795 35178 ft 442 kts 193°
2026-04-17 10:27 41.40438 0.23298 35180 ft 443 kts 193°
2026-04-17 10:28 41.34380 0.21799 35172 ft 443 kts 193°
2026-04-17 10:28 41.28318 0.20300 35171 ft 443 kts 193°
2026-04-17 10:29 41.22254 0.18805 35173 ft 444 kts 193°
2026-04-17 10:29 41.16176 0.17315 35177 ft 444 kts 193°
2026-04-17 10:30 41.10180 0.15417 35172 ft 442 kts 199°
2026-04-17 10:30 41.04291 0.13022 35170 ft 443 kts 199°
2026-04-17 10:31 40.98393 0.10635 35167 ft 443 kts 199°
2026-04-17 10:31 40.92491 0.08252 35170 ft 444 kts 199°
2026-04-17 10:32 40.86583 0.05885 35170 ft 444 kts 199°
2026-04-17 10:32 40.80670 0.03519 35172 ft 444 kts 199°
2026-04-17 10:33 40.74758 0.01151 35179 ft 444 kts 199°
2026-04-17 10:33 40.68843 -0.01203 35188 ft 444 kts 199°
2026-04-17 10:34 40.62936 -0.03554 35189 ft 443 kts 199°
2026-04-17 10:34 40.57037 -0.05902 35200 ft 443 kts 199°
2026-04-17 10:35 40.51181 -0.08230 35205 ft 442 kts 199°
2026-04-17 10:35 40.45255 -0.10576 35208 ft 442 kts 199°
2026-04-17 10:36 40.39402 -0.12887 35213 ft 442 kts 199°
2026-04-17 10:36 40.33513 -0.15214 35217 ft 442 kts 199°
2026-04-17 10:37 40.27624 -0.17538 35216 ft 442 kts 199°
2026-04-17 10:37 40.21731 -0.19859 35200 ft 442 kts 198°
2026-04-17 10:38 40.15835 -0.22178 35192 ft 443 kts 198°
2026-04-17 10:38 40.10887 -0.24121 35188 ft 443 kts 198°
2026-04-17 10:39 40.04984 -0.26438 35171 ft 443 kts 198°
2026-04-17 10:39 39.99114 -0.28730 35167 ft 444 kts 198°
2026-04-17 10:40 39.93191 -0.31035 35166 ft 444 kts 198°
2026-04-17 10:40 39.87264 -0.33334 35173 ft 445 kts 198°
2026-04-17 10:41 39.81334 -0.35641 35182 ft 445 kts 198°
2026-04-17 10:41 39.75394 -0.37948 35180 ft 445 kts 198°
2026-04-17 10:42 39.69455 -0.40259 35186 ft 446 kts 198°
2026-04-17 10:42 39.63505 -0.42555 35188 ft 446 kts 198°
2026-04-17 10:43 39.57552 -0.44837 35184 ft 446 kts 198°
2026-04-17 10:43 39.51602 -0.47138 35185 ft 446 kts 198°
2026-04-17 10:44 39.45493 -0.48552 35186 ft 448 kts 184°
2026-04-17 10:44 39.39257 -0.48982 35186 ft 449 kts 184°
2026-04-17 10:45 39.33023 -0.49426 35163 ft 449 kts 184°
2026-04-17 10:45 39.26778 -0.49881 35164 ft 449 kts 184°
2026-04-17 10:46 39.20534 -0.50343 35170 ft 450 kts 184°
2026-04-17 10:46 39.14280 -0.50794 35174 ft 450 kts 184°
2026-04-17 10:47 39.08068 -0.51233 35169 ft 450 kts 184°
2026-04-17 10:47 39.04937 -0.51457 35023 ft 451 kts 184°
2026-04-17 10:47 39.01785 -0.51686 34208 ft 458 kts 184°
2026-04-17 10:47 38.98588 -0.51917 33299 ft 462 kts 184°
2026-04-17 10:48 38.95359 -0.52149 32413 ft 467 kts 184°
2026-04-17 10:48 38.92102 -0.52384 31507 ft 471 kts 184°
2026-04-17 10:48 38.88816 -0.52623 30641 ft 474 kts 183°
2026-04-17 10:48 38.85498 -0.52862 29520 ft 481 kts 183°
2026-04-17 10:49 38.82173 -0.53095 29024 ft 474 kts 183°
2026-04-17 10:49 38.78898 -0.53323 28377 ft 470 kts 183°
2026-04-17 10:49 38.75647 -0.53549 27755 ft 466 kts 183°
2026-04-17 10:49 38.72419 -0.53779 27137 ft 462 kts 183°
2026-04-17 10:50 38.69223 -0.54009 26528 ft 459 kts 183°
2026-04-17 10:50 38.66048 -0.54242 25894 ft 455 kts 183°
2026-04-17 10:50 38.62897 -0.54474 25300 ft 452 kts 183°
2026-04-17 10:50 38.59768 -0.54696 24713 ft 449 kts 183°
2026-04-17 10:51 38.56657 -0.54913 24130 ft 446 kts 183°
2026-04-17 10:51 38.53567 -0.55127 23529 ft 443 kts 183°
2026-04-17 10:51 38.50500 -0.55339 22955 ft 438 kts 183°
2026-04-17 10:51 38.47474 -0.55549 22441 ft 432 kts 183°
2026-04-17 10:52 38.44486 -0.55760 21928 ft 426 kts 183°
2026-04-17 10:52 38.41544 -0.55972 21450 ft 420 kts 183°
2026-04-17 10:52 38.38645 -0.56178 20983 ft 414 kts 183°
2026-04-17 10:52 38.35792 -0.56380 20529 ft 408 kts 183°
2026-04-17 10:53 38.32974 -0.56583 20085 ft 403 kts 184°
2026-04-17 10:53 38.30192 -0.56781 19642 ft 398 kts 183°
2026-04-17 10:53 38.27442 -0.56972 19206 ft 393 kts 182°
2026-04-17 10:53 38.24723 -0.56928 18777 ft 389 kts 178°
2026-04-17 10:54 38.22025 -0.56805 18316 ft 386 kts 178°
2026-04-17 10:54 38.19355 -0.56681 17856 ft 382 kts 178°
2026-04-17 10:54 38.16709 -0.56561 17412 ft 378 kts 178°
2026-04-17 10:54 38.14089 -0.56446 16976 ft 375 kts 178°
2026-04-17 10:55 38.11493 -0.56332 16523 ft 372 kts 178°
2026-04-17 10:55 38.08912 -0.56230 16082 ft 369 kts 178°
2026-04-17 10:55 38.06352 -0.56145 15635 ft 367 kts 179°
2026-04-17 10:55 38.03806 -0.56069 15191 ft 365 kts 179°
2026-04-17 10:56 38.01274 -0.55993 14738 ft 363 kts 179°
2026-04-17 10:56 37.98747 -0.55918 14286 ft 362 kts 178°
2026-04-17 10:56 37.96248 -0.55840 14042 ft 354 kts 178°
2026-04-17 10:56 37.93862 -0.55762 13848 ft 331 kts 178°
2026-04-17 10:57 37.91608 -0.55807 13268 ft 319 kts 190°
2026-04-17 10:57 37.89548 -0.56687 12614 ft 311 kts 212°
2026-04-17 10:57 37.87907 -0.58422 12214 ft 308 kts 233°
2026-04-17 10:57 37.86953 -0.60791 11654 ft 302 kts 264°
2026-04-17 10:58 37.87148 -0.63364 11409 ft 293 kts 296°
2026-04-17 10:58 37.88367 -0.65359 11168 ft 288 kts 328°
2026-04-17 10:58 37.90214 -0.66186 10927 ft 283 kts
2026-04-17 10:58 37.92159 -0.65852 10798 ft 284 kts 14°
2026-04-17 10:59 37.94075 -0.65206 10733 ft 285 kts 15°
2026-04-17 10:59 37.95996 -0.64579 10660 ft 286 kts 11°
2026-04-17 10:59 37.97975 -0.64498 10524 ft 286 kts 351°
2026-04-17 10:59 37.99857 -0.65291 10288 ft 286 kts 334°
2026-04-17 11:00 38.01569 -0.66588 9960 ft 288 kts 327°
2026-04-17 11:00 38.03198 -0.68064 9477 ft 285 kts 325°
2026-04-17 11:00 38.04747 -0.69533 9007 ft 272 kts 324°
2026-04-17 11:00 38.06210 -0.70959 8600 ft 258 kts 323°
2026-04-17 11:01 38.07567 -0.72380 8251 ft 250 kts 321°
2026-04-17 11:01 38.08665 -0.74077 7906 ft 252 kts 292°
2026-04-17 11:01 38.08794 -0.76263 7563 ft 253 kts 254°
2026-04-17 11:01 38.07869 -0.78114 7214 ft 251 kts 216°
2026-04-17 11:02 38.06310 -0.79071 6878 ft 250 kts 200°
2026-04-17 11:02 38.04872 -0.80267 6534 ft 249 kts 231°
2026-04-17 11:02 38.03810 -0.82015 6180 ft 251 kts 230°
2026-04-17 11:02 38.02627 -0.83641 5827 ft 251 kts 225°
2026-04-17 11:03 38.01400 -0.85217 5481 ft 251 kts 225°
2026-04-17 11:03 38.00175 -0.86797 5137 ft 251 kts 226°
2026-04-17 11:03 37.98954 -0.88380 4793 ft 251 kts 226°
2026-04-17 11:03 37.97738 -0.89959 4435 ft 250 kts 226°
2026-04-17 11:04 37.96520 -0.91537 4105 ft 250 kts 226°
2026-04-17 11:04 37.95330 -0.93080 3993 ft 238 kts 225°
2026-04-17 11:04 37.94236 -0.94495 4007 ft 219 kts 226°
2026-04-17 11:04 37.93191 -0.95849 3873 ft 208 kts 226°
2026-04-17 11:05 37.92204 -0.97126 3649 ft 204 kts 226°
2026-04-17 11:05 37.91219 -0.98400 3393 ft 202 kts 225°
2026-04-17 11:05 37.90242 -0.99663 3134 ft 199 kts 225°
2026-04-17 11:05 37.89283 -1.00902 2877 ft 196 kts 225°
2026-04-17 11:06 37.88353 -1.02104 2615 ft 186 kts 226°
2026-04-17 11:06 37.87466 -1.03249 2384 ft 179 kts 225°
2026-04-17 11:06 37.86615 -1.04347 2158 ft 170 kts 225°
2026-04-17 11:06 37.85807 -1.05390 1956 ft 165 kts 224°
2026-04-17 11:07 37.85019 -1.06408 1724 ft 157 kts 223°
2026-04-17 11:07 37.84284 -1.07356 1498 ft 148 kts 224°
2026-04-17 11:07 37.83573 -1.08273 1318 ft 145 kts 224°
2026-04-17 11:07 37.82869 -1.09179 1139 ft 144 kts 223°
2026-04-17 11:08 37.82173 -1.10083 943 ft 143 kts 224°
2026-04-17 11:08 37.81476 -1.10980 745 ft 142 kts 224°
2026-04-17 11:08 37.80801 -1.11859 654 ft 130 kts 221°
2026-04-17 11:08 37.80315 -1.12463 651 ft 56 kts 226°
2026-04-17 11:09 37.80100 -1.12744 649 ft 33 kts 227°
2026-04-17 11:09 37.79980 -1.12914 651 ft 24 kts 233°
2026-04-17 11:09 37.79921 -1.13056 651 ft 14 kts 251°
2026-04-17 11:10 37.79947 -1.13243 652 ft 15 kts 25°
2026-04-17 11:10 37.80026 -1.13148 652 ft 15 kts 44°
2026-04-17 11:10 37.80090 -1.13082 652 ft 11 kts 14°
2026-04-17 11:10 37.80148 -1.13123 652 ft 10 kts 313°
2026-04-17 11:11 37.80202 -1.13153 652 ft 8 kts
2026-04-17 11:11 37.80240 -1.13122 653 ft 0 kts 43°
2026-04-17 11:12 37.80241 -1.13121 653 ft 2 kts 43°
2026-04-17 11:12 37.80267 -1.13105 652 ft 7 kts 351°
2026-04-17 11:12 37.80304 -1.13142 652 ft 5 kts 315°
2026-04-17 11:12 37.80315 -1.13155 652 ft 0 kts 315°